Overview Statistics Trail Chart Weather Telemetry Raw packets
 

This is the latest recevied weather packets stored in our database for station/object SV9TNF-55. If no packets are shown the sender has not sent any weather packets the latest 10 day(s).

<< 40 41 42 43 44 45 46 >>
Time Temp. Humidity Pressure Rain* Wind** Luminosity Snow
1788043607 20.56° C 46% 1016 hPa 0 mm 1.79 m/s, 270° - -
1788043008 20.56° C 48% 1016.1 hPa 0 mm 1.34 m/s, 270° - -
1788042407 20.56° C 49% 1016.4 hPa 0 mm 2.68 m/s, 270° - -
1788041807 21.11° C 49% 1016.4 hPa 0 mm 2.68 m/s, 292° - -
1788041208 20.56° C 51% 1016.3 hPa 0 mm 2.24 m/s, 292° - -
1788040607 21.11° C 51% 1016.3 hPa 0 mm 4.02 m/s, 292° - -
1788040007 21.11° C 54% 1016.1 hPa 0 mm 3.58 m/s, 292° - -
1788039407 20.56° C 53% 1016 hPa 0 mm 1.34 m/s, 292° - -
1788038807 20.56° C 54% 1016.3 hPa 0 mm 2.24 m/s, 270° - -
1788038207 20.56° C 53% 1016.4 hPa 0 mm 2.68 m/s, 270° - -
1788037607 20.56° C 53% 1016.5 hPa 0 mm 1.79 m/s, 270° - -
1788037006 20.56° C 54% 1016.5 hPa 0 mm 2.24 m/s, 270° - -
1788036406 20.56° C 55% 1016.5 hPa 0 mm 2.24 m/s, 270° - -
1788035806 20.56° C 56% 1016.5 hPa 0 mm 3.58 m/s, 292° - -
1788035206 20° C 55% 1016.5 hPa 0 mm 3.13 m/s, 292° - -
1788034606 20.56° C 57% 1016.7 hPa 0 mm 2.24 m/s, 292° - -
1788034006 20.56° C 56% 1016.6 hPa 0 mm 1.34 m/s, 270° - -
1788033406 20.56° C 53% 1016.7 hPa 0 mm 2.68 m/s, 292° - -
1788032806 20.56° C 50% 1016.7 hPa 0 mm 4.47 m/s, 292° - -
1788032207 20.56° C 49% 1016.6 hPa 0 mm 3.58 m/s, 292° - -
1788031606 20.56° C 48% 1016.6 hPa 0 mm 1.79 m/s, 270° - -
1788031006 20.56° C 47% 1016.6 hPa 0 mm 1.34 m/s, 292° - -
1788030406 20.56° C 47% 1016.7 hPa 0 mm 1.34 m/s, 292° - -
1788029805 20.56° C 48% 1016.4 hPa 0 mm 2.24 m/s, 292° - -
1788029206 20° C 47% 1016.6 hPa 0 mm 1.34 m/s, 292° - -

* Rain latest hour (hover to see other rain measurements)
** Current wind speed in m/s (hover to see current wind gust speed)